User: anonymous   Login
Location: ??
(31.9467°N, 34.8903°E)
Time: 06:49:24
(UTC+00:00)
Language:

S3M - Orbit

View from above orbital plane
View from above orbital plane
View from above satellite
View from above satellite

Ground track
Ground track

The orbit data is extracted from the following two-line orbital elements,

1 12508U 81053B   21015.93511367  .00000012  00000-0 -32201-5 0  9994
2 12508  82.9575 253.6501 0038017 144.8988 215.4686 13.76366452995274
Epoch (UTC): 15 January 2021 22:26:33
Eccentricity: 0.0038017
inclination: 82.9575°
perigee height: 949 km
apogee height: 1005 km
right ascension of ascending node: 253.6501°
argument of perigee: 144.8988°
revolutions per day: 13.76366452
mean anomaly at epoch: 215.4686°
orbit number at epoch: 99527

The dashed part of the orbit path shows where the satellite is in the earth's shadow,  

DLR